User: anonymous   Login
Location: Cueva de Ratón
(10.1013°N, 67.6606°W)
Time: 16:56:40
(UTC+00:00)
Language:

Cosmos 44 - Orbit

View from above orbital plane
View from above orbital plane
View from above satellite
View from above satellite

Ground track
Ground track

The orbit data is extracted from the following two-line orbital elements,

1   876U 64053A   24107.20483645  .00000675  00000-0  13085-3 0  9993
2   876  65.0584 144.1692 0147197 218.9134 140.1301 14.64634338173154
Epoch (UTC): 16 April 2024 04:54:57
Eccentricity: 0.0147197
inclination: 65.0584°
perigee height: 574 km
apogee height: 782 km
right ascension of ascending node: 144.1692°
argument of perigee: 218.9134°
revolutions per day: 14.64634338
mean anomaly at epoch: 140.1301°
orbit number at epoch: 17315

The dashed part of the orbit path shows where the satellite is in the earth's shadow,  

DLR